timestamp,wind_dir_avg,wind_spd_avg,wind_spd_max_dir,wind_spd_gust,battery_voltage,lat,long
2022-01-16 00:04:00+00:00,230.0,21.36,227.0,26.49,12.25,47.59359,-54.27349
2022-01-16 00:14:01+00:00,234.0,22.76,226.0,26.46,12.17,47.59359,-54.27349
2022-01-16 00:24:01+00:00,231.0,19.17,231.0,24.87,12.17,47.59359,-54.27349
2022-01-16 00:34:01+00:00,236.0,22.73,227.0,25.26,12.17,47.59359,-54.27349
2022-01-16 00:44:01+00:00,234.0,19.97,229.0,25.66,12.17,47.59359,-54.27349
2022-01-16 00:54:01+00:00,237.0,20.94,234.0,24.85,12.17,47.59359,-54.27349
2022-01-16 01:04:01+00:00,239.0,20.47,244.0,24.27,12.17,47.59359,-54.27349
2022-01-16 01:14:00+00:00,237.0,21.3,248.0,28.08,12.17,47.59359,-54.27349
2022-01-16 01:24:00+00:00,237.0,19.8,243.0,24.94,12.17,47.59359,-54.27349
2022-01-16 01:34:00+00:00,241.0,19.82,230.0,24.14,12.17,47.59359,-54.27349
2022-01-16 01:44:00+00:00,230.0,20.41,236.0,27.59,12.17,47.59359,-54.27349
2022-01-16 01:54:00+00:00,243.0,20.88,241.0,23.39,12.17,47.59359,-54.27349
2022-01-16 02:04:00+00:00,232.0,19.04,237.0,23.97,12.17,47.59359,-54.27349
2022-01-16 02:14:00+00:00,236.0,18.21,236.0,24.16,12.17,47.59359,-54.27349
2022-01-16 02:24:00+00:00,232.0,21.76,229.0,24.92,12.17,47.59359,-54.27349
2022-01-16 02:34:00+00:00,232.0,23.78,239.0,27.63,12.17,47.59359,-54.27349
2022-01-16 02:44:00+00:00,234.0,23.54,238.0,30.55,12.17,47.59359,-54.27349
2022-01-16 02:54:00+00:00,238.0,20.2,248.0,24.23,12.17,47.59359,-54.27349
2022-01-16 03:04:00+00:00,235.0,22.44,232.0,26.77,12.17,47.59359,-54.27349
2022-01-16 03:14:00+00:00,233.0,23.52,231.0,28.56,12.17,47.59359,-54.27349
2022-01-16 03:24:00+00:00,236.0,21.86,238.0,25.82,12.17,47.59359,-54.27349
2022-01-16 03:34:00+00:00,242.0,22.57,242.0,28.52,12.17,47.59359,-54.27349
2022-01-16 03:44:00+00:00,245.0,22.51,236.0,28.83,12.17,47.59359,-54.27349
2022-01-16 03:54:00+00:00,237.0,22.62,238.0,27.6,12.17,47.59359,-54.27349
2022-01-16 04:04:00+00:00,233.0,22.0,235.0,25.68,12.17,47.59359,-54.27349
2022-01-16 04:14:00+00:00,232.0,24.17,232.0,28.98,12.17,47.59359,-54.27349
2022-01-16 04:24:00+00:00,233.0,19.29,232.0,23.64,12.17,47.59359,-54.27349
2022-01-16 04:34:00+00:00,236.0,20.54,234.0,24.5,12.17,47.59359,-54.27349
2022-01-16 04:44:00+00:00,241.0,21.84,249.0,26.83,12.17,47.59359,-54.27349
2022-01-16 04:54:00+00:00,239.0,22.33,246.0,27.88,12.17,47.59359,-54.27349
2022-01-16 05:04:00+00:00,240.0,22.16,244.0,26.98,12.17,47.59359,-54.27349
2022-01-16 05:14:01+00:00,237.0,19.66,232.0,24.33,12.17,47.59359,-54.27349
2022-01-16 05:24:01+00:00,239.0,21.69,252.0,24.52,12.17,47.59359,-54.27349
2022-01-16 05:34:01+00:00,229.0,20.78,240.0,24.88,12.17,47.59359,-54.27349
2022-01-16 05:44:01+00:00,232.0,23.23,240.0,29.15,12.17,47.59359,-54.27349
2022-01-16 05:54:01+00:00,238.0,23.16,239.0,27.66,12.17,47.59359,-54.27349
2022-01-16 06:04:01+00:00,232.0,19.92,230.0,24.86,12.17,47.59359,-54.27349
2022-01-16 06:14:00+00:00,236.0,22.44,222.0,26.5,12.17,47.59359,-54.27349
2022-01-16 06:24:00+00:00,243.0,21.83,240.0,26.04,12.17,47.59359,-54.27349
2022-01-16 06:34:00+00:00,247.0,22.09,244.0,25.49,12.17,47.59359,-54.27349
2022-01-16 06:44:00+00:00,248.0,18.87,252.0,25.87,12.17,47.59359,-54.27349
2022-01-16 06:54:00+00:00,237.0,21.69,239.0,27.72,12.17,47.59359,-54.27349
2022-01-16 07:04:00+00:00,241.0,19.83,234.0,23.52,12.17,47.59359,-54.27349
2022-01-16 07:14:01+00:00,237.0,20.2,241.0,24.35,12.17,47.59359,-54.27349
2022-01-16 07:24:01+00:00,236.0,20.49,231.0,24.38,12.17,47.59359,-54.27349
2022-01-16 07:34:01+00:00,238.0,22.32,238.0,27.5,12.17,47.59359,-54.27349
2022-01-16 07:44:01+00:00,237.0,20.74,232.0,24.87,12.17,47.59359,-54.27349
2022-01-16 07:54:01+00:00,238.0,19.81,233.0,24.4,12.17,47.59359,-54.27349
2022-01-16 08:04:01+00:00,245.0,20.11,246.0,25.19,12.17,47.59359,-54.27349
2022-01-16 08:14:01+00:00,246.0,20.01,249.0,22.72,12.09,47.59359,-54.27349
2022-01-16 08:24:01+00:00,244.0,18.21,249.0,21.56,12.09,47.59359,-54.27349
2022-01-16 08:34:01+00:00,236.0,19.91,232.0,23.08,12.09,47.59359,-54.27349
2022-01-16 08:44:01+00:00,241.0,20.89,242.0,25.35,12.09,47.59359,-54.27349
2022-01-16 08:54:01+00:00,239.0,19.51,238.0,26.74,12.09,47.59359,-54.27349
2022-01-16 09:04:01+00:00,236.0,15.23,248.0,20.14,12.09,47.59359,-54.27349
2022-01-16 12:14:00+00:00,261.0,10.94,262.0,16.51,12.17,47.59359,-54.27349
2022-01-16 12:24:00+00:00,259.0,10.56,250.0,12.5,12.17,47.59359,-54.27349
2022-01-16 12:34:00+00:00,262.0,12.46,260.0,17.18,12.17,47.59359,-54.27349
2022-01-16 12:44:00+00:00,264.0,13.77,268.0,17.08,12.17,47.59359,-54.27349
2022-01-16 12:54:00+00:00,268.0,11.22,268.0,14.58,12.17,47.59359,-54.27349
2022-01-16 13:04:00+00:00,270.0,10.58,273.0,12.12,12.17,47.59359,-54.27349
2022-01-16 19:14:00+00:00,286.0,8.02,277.0,10.25,12.89,47.59359,-54.27349
2022-01-16 19:24:00+00:00,287.0,11.97,290.0,14.99,12.89,47.59359,-54.27349
2022-01-16 19:34:00+00:00,308.0,7.49,286.0,10.87,12.89,47.59359,-54.27349
2022-01-16 19:44:00+00:00,307.0,8.76,305.0,11.55,12.89,47.59359,-54.27349
2022-01-16 19:54:00+00:00,309.0,8.63,313.0,9.98,12.89,47.59359,-54.27349
2022-01-16 20:04:00+00:00,303.0,8.32,302.0,9.16,12.89,47.59359,-54.27349
2022-01-16 20:14:00+00:00,300.0,6.18,297.0,8.5,12.57,47.59359,-54.27349
2022-01-16 20:24:00+00:00,300.0,6.99,281.0,13.22,12.57,47.59359,-54.27349
2022-01-16 20:34:00+00:00,294.0,12.32,296.0,15.36,12.57,47.59359,-54.27349
2022-01-16 20:44:00+00:00,315.0,6.79,320.0,9.83,12.57,47.59359,-54.27349
2022-01-16 20:54:00+00:00,311.0,9.53,294.0,11.78,12.57,47.59359,-54.27349
2022-01-16 21:04:00+00:00,324.0,7.48,313.0,8.86,12.57,47.59359,-54.27349
